Muscatine, IA

8:19 PM CDT on July 20, 2017 (GMT -0500)
Muscatine Municipal

Weather History for KMUT - March, 2013

Change the Weather History Date:

Friday, March 8, 2013

  Actual Average Record
Temperature  
Mean Temperature 28 °F -  
Max Temperature 41 °F 46 °F 74 °F (1977)
Min Temperature 15 °F 25 °F -4 °F (1982)
Degree Days  
Heating Degree Days 37    
Moisture  
Dew Point 23 °F    
Average Humidity 72    
Maximum Humidity 86    
Minimum Humidity 60    
Precipitation  
Precipitation 0.00 in - - ()
Sea Level Pressure  
Sea Level Pressure 30.33 in    
Wind  
Wind Speed 5 mph (SE)    
Max Wind Speed 13 mph    
Max Gust Speed 18 mph    
Visibility 9 miles    
Events      
Averages and records for this station are not official NWS values.
T = Trace of Precipitation, MM = Missing Value Source: NWS Daily Summary

Daily Weather History Graph

Daily Weather History Graph

Search for Another Location

Airport or City:

Trip Planner

Search our weather history database for the weather conditions in past years. The results will help you decide how hot, cold, wet, or windy it might be!

Date:

Astronomy

Mar. 08, 2013 Rise Set
Actual Time 6:27 AM CST 6:03 PM CST
Civil Twilight 5:59 AM CST 6:31 PM CST
Nautical Twilight 5:27 AM CST 7:03 PM CST
Astronomical Twilight 4:55 AM CST 7:35 PM CST
Moon 4:13 AM CST (3/8) 2:57 PM CST (3/8)
Length of Visible Light 12h 31m
Length of Day
11h 36m
Waning Crescent, 11% of the Moon is Illuminated
Mar 8
Waning Crescent
Mar 11
New
Mar 19
First Quarter
Mar 27
Full
Apr 2
Last Quarter

Hourly Weather History & Observations

Time (CST) Temp. Windchill Dew Point Humidity Pressure Visibility Wind Dir Wind Speed Gust Speed Precip Events Conditions
12:15 AM 17.6 °F - 12.2 °F 79% 30.38 in 5.0 mi Calm Calm - N/A   Haze
12:35 AM 17.6 °F - 12.2 °F 79% 30.38 in 5.0 mi Calm Calm - N/A   Haze
12:55 AM 19.4 °F - 14.0 °F 80% 30.39 in 7.0 mi Calm Calm - N/A   Clear
1:15 AM 17.6 °F - 12.2 °F 79% 30.39 in 5.0 mi Calm Calm - N/A   Haze
1:35 AM 17.6 °F - 12.2 °F 79% 30.39 in 5.0 mi Calm Calm - N/A   Haze
1:55 AM 17.6 °F - 12.2 °F 79% 30.39 in 5.0 mi Calm Calm - N/A   Haze
2:15 AM 15.8 °F - 10.4 °F 79% 30.38 in 4.0 mi Calm Calm - N/A   Haze
2:35 AM 15.8 °F - 10.4 °F 79% 30.38 in 5.0 mi Calm Calm - N/A   Haze
2:55 AM 17.6 °F - 12.2 °F 79% 30.38 in 5.0 mi Calm Calm - N/A   Haze
3:15 AM 15.8 °F 10.2 °F 10.4 °F 79% 30.37 in 4.0 mi SE 3.5 mph - N/A   Haze
3:35 AM 17.6 °F 12.3 °F 14.0 °F 86% 30.37 in 5.0 mi ESE 3.5 mph - N/A   Clear
3:55 AM 15.8 °F - 10.4 °F 79% 30.37 in 5.0 mi Calm Calm - N/A   Haze
4:15 AM 23.0 °F 17.0 °F 17.6 °F 80% 30.37 in 7.0 mi SE 4.6 mph - N/A   Clear
4:35 AM 23.0 °F 17.0 °F 17.6 °F 80% 30.37 in 7.0 mi ESE 4.6 mph - N/A   Clear
4:55 AM 24.8 °F 20.5 °F 19.4 °F 80% 30.38 in 7.0 mi ESE 3.5 mph - N/A   Clear
5:15 AM 21.2 °F - 17.6 °F 86% 30.38 in 7.0 mi Calm Calm - N/A   Clear
5:35 AM 15.8 °F - 10.4 °F 79% 30.39 in 5.0 mi Calm Calm - N/A   Haze
5:55 AM 17.6 °F - 12.2 °F 79% 30.39 in 5.0 mi Calm Calm - N/A   Haze
6:15 AM 24.8 °F 16.9 °F 19.4 °F 80% 30.39 in 7.0 mi ESE 6.9 mph - N/A   Clear
6:35 AM 24.8 °F 17.9 °F 19.4 °F 80% 30.38 in 7.0 mi SE 5.8 mph - N/A   Clear
6:55 AM 24.8 °F 16.9 °F 19.4 °F 80% 30.39 in 7.0 mi SE 6.9 mph - N/A   Clear
7:15 AM 26.6 °F 20.0 °F 19.4 °F 74% 30.39 in 7.0 mi SE 5.8 mph - N/A   Clear
7:35 AM 26.6 °F 18.2 °F 19.4 °F 74% 30.39 in 7.0 mi ESE 8.1 mph - N/A   Clear
7:55 AM 28.4 °F 20.4 °F 21.2 °F 74% 30.39 in 10.0 mi SE 8.1 mph - N/A   Clear
8:15 AM 28.4 °F 20.4 °F 21.2 °F 74% 30.38 in 10.0 mi SE 8.1 mph - N/A   Clear
8:35 AM 30.2 °F 22.6 °F 21.2 °F 69% 30.39 in 10.0 mi SE 8.1 mph - N/A   Clear
8:55 AM 30.2 °F 23.4 °F 21.2 °F 69% 30.40 in 10.0 mi SE 6.9 mph - N/A   Clear
9:15 AM 32.0 °F 24.2 °F 23.0 °F 69% 30.39 in 10.0 mi SE 9.2 mph - N/A   Clear
9:35 AM 33.8 °F 26.4 °F 23.0 °F 65% 30.39 in 10.0 mi SE 9.2 mph 16.1 mph N/A   Clear
9:55 AM 33.8 °F 27.7 °F 24.8 °F 70% 30.39 in 10.0 mi SE 6.9 mph - N/A   Clear
10:15 AM 35.6 °F 27.5 °F 24.8 °F 65% 30.39 in 10.0 mi SE 11.5 mph - N/A   Clear
10:35 AM 35.6 °F 28.6 °F 24.8 °F 65% 30.38 in 10.0 mi SE 9.2 mph - N/A   Clear
10:55 AM 35.6 °F 27.5 °F 24.8 °F 65% 30.37 in 10.0 mi SE 11.5 mph - N/A   Clear
11:15 AM 37.4 °F 30.3 °F 24.8 °F 60% 30.37 in 10.0 mi SE 10.4 mph - N/A   Clear
11:35 AM 37.4 °F 29.8 °F 24.8 °F 60% 30.37 in 10.0 mi SSE 11.5 mph 17.3 mph N/A   Clear
11:55 AM 37.4 °F 30.8 °F 26.6 °F 65% 30.37 in 10.0 mi SE 9.2 mph - N/A   Clear
12:15 PM 37.4 °F 30.3 °F 26.6 °F 65% 30.36 in 10.0 mi SE 10.4 mph - N/A   Clear
12:35 PM 37.4 °F 29.3 °F 26.6 °F 65% 30.34 in 10.0 mi SE 12.7 mph - N/A   Clear
12:55 PM 37.4 °F 29.3 °F 26.6 °F 65% 30.34 in 10.0 mi SE 12.7 mph - N/A   Clear
1:15 PM 39.2 °F 31.6 °F 26.6 °F 61% 30.32 in 10.0 mi SE 12.7 mph 18.4 mph N/A   Clear
1:35 PM 39.2 °F 31.6 °F 26.6 °F 61% 30.32 in 10.0 mi SE 12.7 mph 16.1 mph N/A   Clear
1:55 PM 39.2 °F 32.0 °F 26.6 °F 61% 30.31 in 10.0 mi SE 11.5 mph 17.3 mph N/A   Clear
2:15 PM 39.2 °F 33.0 °F 26.6 °F 61% 30.31 in 10.0 mi SE 9.2 mph - N/A   Clear
2:35 PM 39.2 °F 32.5 °F 26.6 °F 61% 30.31 in 10.0 mi ESE 10.4 mph - N/A   Clear
2:55 PM 39.2 °F 32.5 °F 28.4 °F 65% 30.31 in 10.0 mi ESE 10.4 mph - N/A   Clear
3:15 PM 39.2 °F 33.0 °F 28.4 °F 65% 30.31 in 10.0 mi ESE 9.2 mph - N/A   Clear
3:35 PM 41.0 °F 35.8 °F 28.4 °F 61% 30.30 in 10.0 mi ESE 8.1 mph - N/A   Clear
3:55 PM 41.0 °F 35.8 °F 28.4 °F 61% 30.30 in 10.0 mi SE 8.1 mph - N/A   Clear
4:15 PM 41.0 °F 35.8 °F 28.4 °F 61% 30.30 in 10.0 mi SE 8.1 mph - N/A   Clear
4:35 PM 39.2 °F 33.6 °F 28.4 °F 65% 30.30 in 10.0 mi ESE 8.1 mph - N/A   Clear
4:55 PM 39.2 °F 33.6 °F 28.4 °F 65% 30.30 in 10.0 mi ESE 8.1 mph - N/A   Clear
5:15 PM 39.2 °F 33.6 °F 28.4 °F 65% 30.29 in 10.0 mi ESE 8.1 mph - N/A   Clear
5:35 PM 37.4 °F 31.4 °F 28.4 °F 70% 30.29 in 10.0 mi ESE 8.1 mph - N/A   Clear
5:55 PM 37.4 °F 32.8 °F 28.4 °F 70% 30.28 in 10.0 mi ESE 5.8 mph - N/A   Clear
6:15 PM 37.4 °F 32.8 °F 28.4 °F 70% 30.27 in 10.0 mi East 5.8 mph - N/A   Clear
6:35 PM 37.4 °F 32.1 °F 28.4 °F 70% 30.26 in 10.0 mi East 6.9 mph - N/A   Clear
6:55 PM 37.4 °F 31.4 °F 28.4 °F 70% 30.26 in 10.0 mi East 8.1 mph - N/A   Clear
7:15 PM 37.4 °F 31.4 °F 28.4 °F 70% 30.26 in 10.0 mi East 8.1 mph - N/A   Clear
7:35 PM 35.6 °F 29.9 °F 28.4 °F 75% 30.24 in 10.0 mi East 6.9 mph - N/A   Clear
7:55 PM 37.4 °F 30.8 °F 28.4 °F 70% 30.23 in 10.0 mi ESE 9.2 mph - N/A   Clear
8:15 PM 37.4 °F 30.8 °F 28.4 °F 70% 30.23 in 10.0 mi ESE 9.2 mph - N/A   Clear
8:35 PM 37.4 °F 32.8 °F 28.4 °F 70% 30.23 in 10.0 mi SE 5.8 mph - N/A   Clear
8:55 PM 37.4 °F 30.3 °F 28.4 °F 70% 30.22 in 10.0 mi ESE 10.4 mph - N/A   Clear
9:15 PM 37.4 °F 31.4 °F 28.4 °F 70% 30.22 in 10.0 mi ESE 8.1 mph - N/A   Clear
9:35 PM 37.4 °F 32.1 °F 30.2 °F 75% 30.22 in 10.0 mi ESE 6.9 mph - N/A   Clear
9:55 PM 37.4 °F 31.4 °F 30.2 °F 75% 30.21 in 10.0 mi ESE 8.1 mph - N/A   Scattered Clouds
10:15 PM 37.4 °F 29.8 °F 30.2 °F 75% 30.21 in 10.0 mi ESE 11.5 mph - N/A   Scattered Clouds
10:35 PM 37.4 °F 32.1 °F 30.2 °F 75% 30.21 in 10.0 mi SE 6.9 mph - N/A   Mostly Cloudy
10:55 PM 37.4 °F 31.4 °F 30.2 °F 75% 30.21 in 10.0 mi SE 8.1 mph - N/A   Scattered Clouds
11:15 PM 37.4 °F 31.4 °F 30.2 °F 75% 30.20 in 10.0 mi SE 8.1 mph - N/A   Scattered Clouds
11:35 PM 37.4 °F 32.1 °F 30.2 °F 75% 30.19 in 10.0 mi SE 6.9 mph - N/A   Scattered Clouds
11:55 PM 37.4 °F 32.8 °F 30.2 °F 75% 30.19 in 10.0 mi ESE 5.8 mph - N/A   Scattered Clouds